{"data":{"norad_id":85023,"epoch":"2026-05-24T02:35:37.052736Z","epoch_age_seconds":152414,"freshness":"FRESH","line1":"1 85023U          26144.10806774  .00020857  00000+0  25087-2 0  9993","line2":"2 85023  99.8348 200.8035 0004536 153.8216 237.2933 14.83961381652841","mean_motion":14.83961381,"eccentricity":0.0004536,"inclination_deg":99.8348,"raan_deg":200.8035,"arg_perigee_deg":153.8216,"mean_anomaly_deg":237.2933,"bstar":0.0025087,"rev_number":65284,"period_min":97.037565696597,"perigee_km":613.67487937919,"apogee_km":620.02072959382,"semimajor_km":6994.9848044865,"source":"CELESTRAK","updated_at":"2026-05-25T13:38:11.429174Z"}}